Simultaneous Nadir Overpasses (SNOs) Predictions

Prediction of SNOs between GOES-16 and NOAA-19 Satellite Orbit:

Table of predicted SNOs for the next 14.0 days since TLE Epoch: 2/13/2025
Index Date Time (GOES-16) GOES-16 Lat,Lon NOAA-19 Lat,Lon Distance(km) Time Diff (sec)
1 02/15/2025 14:44:04 0.02, -75.21 0.30, -76.55 151.91 80
2 02/16/2025 14:34:10 0.02, -75.22 -0.35, -73.49 196.53 80
3 02/19/2025 02:53:00 -0.02, -75.20 -0.68, -77.98 317.68 80
4 02/20/2025 02:37:47 -0.02, -75.21 0.06, -74.94 31.00 80
5 02/21/2025 02:25:14 -0.02, -75.22 0.73, -71.89 379.73 80
6 02/22/2025 14:56:35 0.02, -75.27 1.00, -79.42 474.64 80
7 02/23/2025 14:44:03 0.01, -75.28 0.27, -76.38 125.93 80
8 02/24/2025 14:34:10 0.00, -75.29 -0.46, -73.34 223.06 80
9 02/27/2025 02:52:57 -0.00, -75.29 -0.60, -77.81 288.18 80
